• In Germany
  • List of Countries
  • For 7 days
  • Water Temperature
  • Satellite Maps
  • Weather Map
  • Weather Widgets
  • user-avatar
    Login

    Hourly Weather Mayrhofen

    Today, 17 July, Tuesday

    Time Temperature Precipitation Wind Pressure Humidity
    00:00 +7°C° 0 mm 2 mps 616 mmHg 93%
    01:00 +7°C° 0 mm 2 mps 616 mmHg 94%
    02:00 +7°C° 0 mm 2 mps 616 mmHg 94%
    03:00 +7°C° 0 mm 2 mps 616 mmHg 94%
    04:00 +7°C° 0 mm 2 mps 616 mmHg 94%
    05:00 +8°C° 0 mm 2 mps 617 mmHg 90%
    06:00 +9°C° 0 mm 2 mps 618 mmHg 86%
    07:00 +12°C° 0 mm 2 mps 618 mmHg 81%
    08:00 +13°C° 0.1 mm 2 mps 619 mmHg 73%
    09:00 +15°C° 0.1 mm 2 mps 620 mmHg 64%
    10:00 +17°C° 0.1 mm 2 mps 620 mmHg 55%
    11:00 +17°C° 0.1 mm 2 mps 620 mmHg 53%
    12:00 +18°C° 0.1 mm 3 mps 621 mmHg 51%
    13:00 +18°C° 0.1 mm 3 mps 621 mmHg 50%
    14:00 +18°C° 0.3 mm 3 mps 621 mmHg 53%
    15:00 +18°C° 0.3 mm 3 mps 620 mmHg 55%
    16:00 +17°C° 0.3 mm 3 mps 620 mmHg 58%
    17:00 +16°C° 0.3 mm 2 mps 620 mmHg 64%
    18:00 +15°C° 0.3 mm 2 mps 620 mmHg 70%
    19:00 +14°C° 0.3 mm 2 mps 619 mmHg 76%
    20:00 +12°C° 0 mm 2 mps 619 mmHg 81%
    21:00 +10°C° 0 mm 2 mps 619 mmHg 85%
    22:00 +8°C° 0 mm 2 mps 618 mmHg 90%
    23:00 +7°C° 0 mm 2 mps 618 mmHg 89%

    Tomorrow, 18 July, Wednesday

    Time Temperature Precipitation Wind Pressure Humidity
    00:00 +7°C° 0 mm 2 mps 618 mmHg 88%
    01:00 +7°C° 0 mm 2 mps 618 mmHg 86%
    02:00 +6°C° 0 mm 2 mps 618 mmHg 86%
    03:00 +6°C° 0 mm 2 mps 618 mmHg 85%
    04:00 +6°C° 0 mm 2 mps 618 mmHg 85%
    05:00 +8°C° 0 mm 2 mps 619 mmHg 80%
    06:00 +10°C° 0 mm 2 mps 619 mmHg 76%
    07:00 +13°C° 0 mm 2 mps 620 mmHg 72%
    08:00 +14°C° 0 mm 2 mps 621 mmHg 65%
    09:00 +16°C° 0 mm 2 mps 621 mmHg 59%
    10:00 +18°C° 0 mm 2 mps 622 mmHg 52%
    11:00 +19°C° 0 mm 2 mps 622 mmHg 49%
    12:00 +20°C° 0 mm 2 mps 622 mmHg 46%
    13:00 +21°C° 0 mm 2 mps 622 mmHg 42%
    14:00 +20°C° 0.1 mm 2 mps 622 mmHg 46%
    15:00 +20°C° 0.1 mm 3 mps 622 mmHg 49%
    16:00 +20°C° 0.1 mm 3 mps 621 mmHg 53%
    17:00 +18°C° 0.3 mm 2 mps 621 mmHg 63%
    18:00 +17°C° 0.3 mm 2 mps 621 mmHg 72%
    19:00 +15°C° 0.3 mm 2 mps 620 mmHg 82%
    20:00 +14°C° 0 mm 2 mps 620 mmHg 86%
    21:00 +12°C° 0 mm 2 mps 620 mmHg 90%
    22:00 +10°C° 0 mm 2 mps 620 mmHg 94%
    23:00 +10°C° 0 mm 1 mps 619 mmHg 95%

    Day after tomorrow, 19 July, Thursday

    Time Temperature Precipitation Wind Pressure Humidity
    00:00 +10°C° 0 mm 1 mps 619 mmHg 95%
    01:00 +9°C° 0 mm 1 mps 619 mmHg 95%
    02:00 +9°C° 0 mm 1 mps 619 mmHg 95%
    03:00 +8°C° 0 mm 1 mps 618 mmHg 94%
    04:00 +8°C° 0 mm 1 mps 618 mmHg 94%
    05:00 +9°C° 0 mm 1 mps 619 mmHg 88%
    06:00 +11°C° 0 mm 1 mps 619 mmHg 83%
    07:00 +12°C° 0 mm 1 mps 620 mmHg 77%
    08:00 +14°C° 0 mm 2 mps 621 mmHg 67%
    09:00 +16°C° 0 mm 2 mps 622 mmHg 57%
    10:00 +18°C° 0 mm 2 mps 622 mmHg 47%
    11:00 +19°C° 0 mm 2 mps 622 mmHg 44%
    12:00 +20°C° 0 mm 2 mps 623 mmHg 42%
    13:00 +21°C° 0 mm 2 mps 623 mmHg 39%
    14:00 +21°C° 0 mm 2 mps 623 mmHg 42%
    15:00 +21°C° 0 mm 2 mps 622 mmHg 45%
    16:00 +20°C° 0 mm 3 mps 622 mmHg 48%
    17:00 +19°C° 0.3 mm 2 mps 622 mmHg 57%
    18:00 +17°C° 0.3 mm 2 mps 621 mmHg 67%
    19:00 +16°C° 0.3 mm 2 mps 621 mmHg 77%
    20:00 +14°C° 0.1 mm 2 mps 620 mmHg 82%
    21:00 +12°C° 0.1 mm 1 mps 620 mmHg 88%
    22:00 +10°C° 0.1 mm 1 mps 620 mmHg 94%
    23:00 +10°C° 0 mm 1 mps 619 mmHg 94%

    20 July, Friday

    Time Temperature Precipitation Wind Pressure Humidity
    00:00 +10°C° 0 mm 1 mps 619 mmHg 95%
    01:00 +9°C° 0 mm 1 mps 619 mmHg 95%
    02:00 +9°C° 0 mm 1 mps 619 mmHg 95%
    03:00 +8°C° 0 mm 1 mps 618 mmHg 94%
    04:00 +8°C° 0 mm 1 mps 618 mmHg 94%
    05:00 +10°C° 0 mm 1 mps 619 mmHg 88%
    06:00 +11°C° 0 mm 0 mps 620 mmHg 82%
    07:00 +14°C° 0 mm 0 mps 620 mmHg 75%
    08:00 +16°C° 0 mm 0 mps 621 mmHg 65%
    09:00 +19°C° 0 mm 1 mps 622 mmHg 55%
    10:00 +21°C° 0 mm 1 mps 622 mmHg 45%
    11:00 +22°C° 0 mm 1 mps 622 mmHg 43%
    12:00 +23°C° 0 mm 1 mps 622 mmHg 41%
    13:00 +23°C° 0 mm 1 mps 622 mmHg 39%
    14:00 +23°C° 0.4 mm 1 mps 622 mmHg 45%
    15:00 +22°C° 0.4 mm 1 mps 621 mmHg 50%
    16:00 +21°C° 0.4 mm 1 mps 621 mmHg 56%
    17:00 +19°C° 1.3 mm 1 mps 620 mmHg 66%
    18:00 +18°C° 1.3 mm 1 mps 620 mmHg 75%
    19:00 +14°C° 1.3 mm 0 mps 619 mmHg 85%
    20:00 +13°C° 0.7 mm 0 mps 619 mmHg 87%
    21:00 +13°C° 0.7 mm 1 mps 619 mmHg 89%
    22:00 +13°C° 0.7 mm 1 mps 618 mmHg 91%
    23:00 +12°C° 0.5 mm 1 mps 618 mmHg 91%

    21 July, Saturday

    Time Temperature Precipitation Wind Pressure Humidity
    00:00 +12°C° 0.5 mm 1 mps 618 mmHg 91%
    01:00 +12°C° 0.5 mm 1 mps 618 mmHg 91%
    02:00 +11°C° 0.3 mm 1 mps 617 mmHg 90%
    03:00 +11°C° 0.3 mm 1 mps 617 mmHg 90%
    04:00 +11°C° 0.3 mm 1 mps 617 mmHg 90%
    05:00 +12°C° 0.3 mm 1 mps 617 mmHg 87%
    06:00 +12°C° 0.3 mm 1 mps 618 mmHg 84%
    07:00 +13°C° 0.3 mm 1 mps 618 mmHg 81%
    08:00 +14°C° 0.8 mm 1 mps 618 mmHg 79%
    09:00 +15°C° 0.8 mm 1 mps 619 mmHg 77%
    10:00 +15°C° 0.8 mm 1 mps 619 mmHg 75%
    11:00 +16°C° 1.1 mm 1 mps 619 mmHg 76%
    12:00 +16°C° 1.1 mm 1 mps 619 mmHg 76%
    13:00 +16°C° 1.1 mm 1 mps 619 mmHg 77%
    14:00 +16°C° 1 mm 1 mps 619 mmHg 77%
    15:00 +15°C° 1 mm 1 mps 619 mmHg 78%
    16:00 +15°C° 1 mm 1 mps 619 mmHg 78%
    17:00 +15°C° 0.8 mm 1 mps 619 mmHg 81%
    18:00 +14°C° 0.8 mm 1 mps 618 mmHg 85%
    19:00 +13°C° 0.8 mm 1 mps 618 mmHg 88%
    20:00 +13°C° 0.4 mm 1 mps 618 mmHg 90%
    21:00 +12°C° 0.4 mm 1 mps 618 mmHg 91%
    22:00 +10°C° 0.4 mm 2 mps 618 mmHg 93%
    23:00 +9°C° 0.1 mm 2 mps 618 mmHg 93%

    22 July, Sunday

    Time Temperature Precipitation Wind Pressure Humidity
    00:00 +9°C° 0.1 mm 2 mps 618 mmHg 93%
    01:00 +8°C° 0.1 mm 2 mps 618 mmHg 94%
    02:00 +8°C° 0.2 mm 2 mps 618 mmHg 94%
    03:00 +8°C° 0.2 mm 2 mps 618 mmHg 94%
    04:00 +8°C° 0.2 mm 2 mps 618 mmHg 94%
    05:00 +9°C° 0.5 mm 2 mps 618 mmHg 92%
    06:00 +10°C° 0.5 mm 2 mps 619 mmHg 91%
    07:00 +12°C° 0.5 mm 2 mps 619 mmHg 90%
    08:00 +12°C° 0.6 mm 2 mps 619 mmHg 87%
    09:00 +13°C° 0.6 mm 2 mps 619 mmHg 85%
    10:00 +14°C° 0.6 mm 2 mps 620 mmHg 83%
    11:00 +15°C° 0.5 mm 2 mps 620 mmHg 80%
    12:00 +15°C° 0.5 mm 2 mps 620 mmHg 78%
    13:00 +16°C° 0.5 mm 2 mps 620 mmHg 75%
    14:00 +17°C° 0.4 mm 2 mps 621 mmHg 73%
    15:00 +17°C° 0.4 mm 3 mps 621 mmHg 70%
    16:00 +17°C° 0.4 mm 3 mps 621 mmHg 68%
    17:00 +16°C° 0.4 mm 2 mps 621 mmHg 74%
    18:00 +15°C° 0.4 mm 2 mps 620 mmHg 79%
    19:00 +14°C° 0.4 mm 2 mps 620 mmHg 85%
    20:00 +13°C° 0.1 mm 2 mps 620 mmHg 88%
    21:00 +10°C° 0.1 mm 2 mps 620 mmHg 91%
    22:00 +9°C° 0.1 mm 2 mps 620 mmHg 95%
    23:00 +8°C° 0 mm 2 mps 619 mmHg 95%
    Show more